When you browse on this site, cookies collect data to enhance your experience and personalize the content and advertising you see.
Visit our Privacy Policy to learn more. By continuing to use the site, you agree to this use of cookies and data.
  • In Österreich
  • Länderverzeichnis
  • Für 7 Tage
  • Wassertemperatur
  • Wetterkarte
  • News
  • Widgets
  • user-avatar
    Anmelden

    Stündliche Wetter Ondjiwa

    Heute, 15 Dezember, Sonntag

    Zeit Temperatur Niederschläge Wind Luftdruck Luftfeuchtigkeit
    00:00 +28°C° 0.1 mm 2 m/S 667 mmHg 42%
    01:00 +27°C° 0 mm 2 m/S 667 mmHg 46%
    02:00 +26°C° 0.2 mm 2 m/S 667 mmHg 48%
    03:00 +26°C° 0.2 mm 2 m/S 667 mmHg 51%
    04:00 +25°C° 0.2 mm 2 m/S 667 mmHg 54%
    05:00 +25°C° 0 mm 2 m/S 667 mmHg 53%
    06:00 +26°C° 0 mm 2 m/S 667 mmHg 52%
    07:00 +27°C° 0 mm 2 m/S 668 mmHg 53%
    08:00 +29°C° 0 mm 2 m/S 668 mmHg 46%
    09:00 +31°C° 0 mm 2 m/S 669 mmHg 39%
    10:00 +35°C° 0 mm 3 m/S 669 mmHg 32%
    11:00 +35°C° 0 mm 3 m/S 668 mmHg 31%
    12:00 +36°C° 0 mm 3 m/S 668 mmHg 29%
    13:00 +36°C° 0 mm 2 m/S 667 mmHg 29%
    14:00 +35°C° 0.3 mm 2 m/S 667 mmHg 30%
    15:00 +34°C° 0.3 mm 1 m/S 666 mmHg 32%
    16:00 +34°C° 0.3 mm 1 m/S 666 mmHg 34%
    17:00 +32°C° 0.3 mm 2 m/S 666 mmHg 40%
    18:00 +30°C° 0.3 mm 4 m/S 666 mmHg 46%
    19:00 +28°C° 0.3 mm 5 m/S 666 mmHg 52%
    20:00 +27°C° 0.7 mm 4 m/S 666 mmHg 55%
    21:00 +26°C° 0.7 mm 3 m/S 667 mmHg 58%
    22:00 +25°C° 0.7 mm 1 m/S 667 mmHg 61%
    23:00 +24°C° 0.2 mm 1 m/S 667 mmHg 63%

    Morgen, 16 Dezember, Montag

    Zeit Temperatur Niederschläge Wind Luftdruck Luftfeuchtigkeit
    00:00 +24°C° 0.2 mm 1 m/S 666 mmHg 65%
    01:00 +24°C° 0.2 mm 1 m/S 666 mmHg 67%
    02:00 +23°C° 0.2 mm 1 m/S 666 mmHg 68%
    03:00 +23°C° 0.2 mm 1 m/S 666 mmHg 69%
    04:00 +21°C° 0.2 mm 0 m/S 665 mmHg 70%
    05:00 +23°C° 0 mm 1 m/S 666 mmHg 67%
    06:00 +24°C° 0 mm 2 m/S 667 mmHg 65%
    07:00 +25°C° 0 mm 3 m/S 667 mmHg 62%
    08:00 +27°C° 0 mm 2 m/S 668 mmHg 54%
    09:00 +30°C° 0 mm 2 m/S 668 mmHg 46%
    10:00 +32°C° 0 mm 2 m/S 668 mmHg 38%
    11:00 +34°C° 0 mm 2 m/S 668 mmHg 35%
    12:00 +35°C° 0 mm 2 m/S 667 mmHg 31%
    13:00 +36°C° 0 mm 2 m/S 667 mmHg 28%
    14:00 +34°C° 0.3 mm 3 m/S 666 mmHg 34%
    15:00 +32°C° 0.3 mm 4 m/S 665 mmHg 40%
    16:00 +29°C° 0.3 mm 4 m/S 664 mmHg 47%
    17:00 +28°C° 0.5 mm 4 m/S 664 mmHg 49%
    18:00 +27°C° 0.5 mm 3 m/S 664 mmHg 52%
    19:00 +26°C° 0.5 mm 3 m/S 665 mmHg 55%
    20:00 +26°C° 0.7 mm 3 m/S 665 mmHg 59%
    21:00 +25°C° 0.7 mm 3 m/S 666 mmHg 64%
    22:00 +24°C° 0.7 mm 3 m/S 667 mmHg 68%
    23:00 +24°C° 0 mm 3 m/S 667 mmHg 69%

    übermorgen, 17 Dezember, Dienstag

    Zeit Temperatur Niederschläge Wind Luftdruck Luftfeuchtigkeit
    00:00 +24°C° 0 mm 2 m/S 666 mmHg 69%
    01:00 +24°C° 0 mm 2 m/S 666 mmHg 70%
    02:00 +24°C° 0 mm 2 m/S 666 mmHg 71%
    03:00 +24°C° 0 mm 2 m/S 666 mmHg 73%
    04:00 +23°C° 0 mm 1 m/S 665 mmHg 74%
    05:00 +24°C° 0.1 mm 1 m/S 666 mmHg 71%
    06:00 +25°C° 0.1 mm 1 m/S 667 mmHg 68%
    07:00 +25°C° 0.1 mm 1 m/S 667 mmHg 66%
    08:00 +28°C° 0 mm 2 m/S 667 mmHg 57%
    09:00 +30°C° 0 mm 2 m/S 668 mmHg 48%
    10:00 +33°C° 0 mm 3 m/S 668 mmHg 39%
    11:00 +34°C° 0 mm 3 m/S 667 mmHg 35%
    12:00 +35°C° 0 mm 3 m/S 667 mmHg 31%
    13:00 +36°C° 0 mm 3 m/S 666 mmHg 27%
    14:00 +36°C° 0 mm 2 m/S 666 mmHg 28%
    15:00 +35°C° 0 mm 2 m/S 665 mmHg 29%
    16:00 +34°C° 0 mm 1 m/S 665 mmHg 30%
    17:00 +33°C° 0 mm 1 m/S 665 mmHg 33%
    18:00 +31°C° 0 mm 1 m/S 665 mmHg 37%
    19:00 +30°C° 0 mm 1 m/S 665 mmHg 41%
    20:00 +29°C° 0.2 mm 1 m/S 665 mmHg 43%
    21:00 +29°C° 0.2 mm 1 m/S 666 mmHg 45%
    22:00 +28°C° 0.2 mm 1 m/S 666 mmHg 48%
    23:00 +27°C° 0.1 mm 1 m/S 666 mmHg 52%

    18 Dezember, Mittwoch

    Zeit Temperatur Niederschläge Wind Luftdruck Luftfeuchtigkeit
    00:00 +26°C° 0.1 mm 1 m/S 666 mmHg 55%
    01:00 +25°C° 0.1 mm 1 m/S 665 mmHg 59%
    02:00 +25°C° 0 mm 1 m/S 665 mmHg 61%
    03:00 +25°C° 0 mm 1 m/S 665 mmHg 63%
    04:00 +25°C° 0 mm 1 m/S 665 mmHg 66%
    05:00 +25°C° 0 mm 2 m/S 666 mmHg 63%
    06:00 +26°C° 0 mm 2 m/S 666 mmHg 61%
    07:00 +26°C° 0 mm 2 m/S 667 mmHg 59%
    08:00 +29°C° 0 mm 2 m/S 667 mmHg 51%
    09:00 +31°C° 0 mm 2 m/S 668 mmHg 44%
    10:00 +33°C° 0 mm 1 m/S 668 mmHg 36%
    11:00 +34°C° 0 mm 1 m/S 667 mmHg 35%
    12:00 +34°C° 0 mm 1 m/S 667 mmHg 33%
    13:00 +35°C° 0 mm 2 m/S 666 mmHg 31%
    14:00 +35°C° 0.1 mm 2 m/S 665 mmHg 34%
    15:00 +34°C° 0.1 mm 2 m/S 665 mmHg 36%
    16:00 +32°C° 0.1 mm 2 m/S 664 mmHg 38%
    17:00 +32°C° 0.1 mm 1 m/S 664 mmHg 40%
    18:00 +31°C° 0.1 mm 1 m/S 664 mmHg 42%
    19:00 +28°C° 0.1 mm 0 m/S 664 mmHg 45%
    20:00 +30°C° 0.1 mm 1 m/S 665 mmHg 46%
    21:00 +29°C° 0.1 mm 1 m/S 665 mmHg 47%
    22:00 +29°C° 0.1 mm 1 m/S 666 mmHg 48%
    23:00 +28°C° 0.2 mm 2 m/S 666 mmHg 50%

    19 Dezember, Donnerstag

    Zeit Temperatur Niederschläge Wind Luftdruck Luftfeuchtigkeit
    00:00 +27°C° 0.2 mm 2 m/S 665 mmHg 53%
    01:00 +26°C° 0.2 mm 3 m/S 665 mmHg 56%
    02:00 +26°C° 0 mm 2 m/S 665 mmHg 56%
    03:00 +26°C° 0 mm 2 m/S 665 mmHg 57%
    04:00 +25°C° 0 mm 1 m/S 665 mmHg 57%
    05:00 +26°C° 0 mm 2 m/S 665 mmHg 57%
    06:00 +26°C° 0 mm 2 m/S 666 mmHg 57%
    07:00 +26°C° 0 mm 2 m/S 666 mmHg 57%
    08:00 +29°C° 0 mm 1 m/S 667 mmHg 51%
    09:00 +31°C° 0 mm 1 m/S 667 mmHg 44%
    10:00 +32°C° 0 mm 0 m/S 668 mmHg 38%
    11:00 +32°C° 0 mm 0 m/S 667 mmHg 35%
    12:00 +33°C° 0 mm 0 m/S 667 mmHg 32%
    13:00 +36°C° 0 mm 1 m/S 666 mmHg 29%
    14:00 +35°C° 0.2 mm 1 m/S 665 mmHg 33%
    15:00 +35°C° 0.2 mm 2 m/S 664 mmHg 37%
    16:00 +32°C° 0.2 mm 2 m/S 664 mmHg 40%
    17:00 +31°C° 0.2 mm 3 m/S 664 mmHg 45%
    18:00 +30°C° 0.2 mm 3 m/S 664 mmHg 49%
    19:00 +29°C° 0.2 mm 3 m/S 664 mmHg 53%
    20:00 +27°C° 1.2 mm 3 m/S 665 mmHg 60%
    21:00 +26°C° 1.2 mm 4 m/S 665 mmHg 67%
    22:00 +23°C° 1.2 mm 4 m/S 665 mmHg 73%
    23:00 +24°C° 1.3 mm 3 m/S 666 mmHg 74%

    20 Dezember, Freitag

    Zeit Temperatur Niederschläge Wind Luftdruck Luftfeuchtigkeit
    00:00 +24°C° 1.3 mm 3 m/S 666 mmHg 75%
    01:00 +24°C° 1.3 mm 2 m/S 666 mmHg 76%
    02:00 +24°C° 1 mm 2 m/S 666 mmHg 77%
    03:00 +24°C° 1 mm 2 m/S 666 mmHg 79%
    04:00 +24°C° 1 mm 2 m/S 666 mmHg 80%
    05:00 +24°C° 0.5 mm 3 m/S 666 mmHg 79%
    06:00 +24°C° 0.5 mm 3 m/S 667 mmHg 78%
    07:00 +24°C° 0.5 mm 3 m/S 667 mmHg 76%
    08:00 +25°C° 0.3 mm 3 m/S 668 mmHg 67%
    09:00 +27°C° 0.3 mm 3 m/S 668 mmHg 58%
    10:00 +28°C° 0.3 mm 3 m/S 668 mmHg 49%
    11:00 +29°C° 0 mm 3 m/S 668 mmHg 45%
    12:00 +31°C° 0 mm 2 m/S 668 mmHg 41%
    13:00 +32°C° 0 mm 2 m/S 667 mmHg 37%
    14:00 +34°C° 0 mm 2 m/S 667 mmHg 36%
    15:00 +34°C° 0 mm 2 m/S 666 mmHg 35%
    16:00 +34°C° 0 mm 2 m/S 666 mmHg 34%
    17:00 +31°C° 0.1 mm 2 m/S 666 mmHg 40%
    18:00 +29°C° 0.1 mm 2 m/S 666 mmHg 46%
    19:00 +27°C° 0.1 mm 2 m/S 665 mmHg 52%
    20:00 +26°C° 0.2 mm 3 m/S 666 mmHg 57%
    21:00 +25°C° 0.2 mm 3 m/S 666 mmHg 62%
    22:00 +23°C° 0.2 mm 4 m/S 667 mmHg 67%
    23:00 +24°C° 0.1 mm 3 m/S 667 mmHg 69%
    Mehr zeigen